Regional Weather Roundup
Issued by NWS

Home | Current Version | Previous Version | Text Only | Print | Product List | Glossary Off
Versions: 1 2 3 4 5 6 7 8 9 10 11 12 13 14 15 16 17 18 19 20 21 22 23 24 25 26 27 28 29 30 31 32 33 34 35 36 37 38 39 40 41 42 43 44 45 46 47 48 49 50

000
ASUS43 KLSX 271057
RWRMO

WEATHER SUMMARY FOR MISSOURI
NATIONAL WEATHER SERVICE SPRINGFIELD MO
600 AM CDT SAT AUG 27 2016

NOTE: "FAIR" INDICATES FEW OR NO CLOUDS BELOW 12,000 FEET WITH NO
       SIGNIFICANT WEATHER AND/OR OBSTRUCTIONS TO VISIBILITY.
       CURRENT SKY AND/OR WEATHER CONDITIONS ARE NOT AVAILABLE FOR
       CHILLICOTHE AND FARMINGTON.

MOZ001>031-035>038-043-044-053-054-271200-
...NORTHERN AND WESTERN MISSOURI...

CITY           SKY/WX    TMP DP  RH WIND       PRES   REMARKS
KANSAS CTY INT PTCLDY    67  66  97 S8        30.01S
LEE`S SUMMIT   PTCLDY    71  68  90 S6        30.02S
ST JOSEPH      FOG       68  68 100 S7        30.00R VSB 1

$$
MOZ066>068-077>081-088>096-101>105-271200-
...SOUTHWEST MISSOURI...

CITY           SKY/WX    TMP DP  RH WIND       PRES   REMARKS
SPRINGFIELD    PTCLDY    71  68  90 SW5       30.05R
JOPLIN         PTCLDY    68  68 100 SE5       30.05R

$$
MOZ032>034-039>042-045>050-055>058-069>072-271200-
...CENTRAL MISSOURI...

CITY           SKY/WX    TMP DP  RH WIND       PRES   REMARKS
COLUMBIA       NOT AVBL
JEFFERSON CITY CLOUDY    71  70  96 E5        30.03R
ROLLA          CLOUDY    71  68  90 S8        30.05S
SEDALIA        MOCLDY    70  69  97 SW6       30.04S FOG
WHITEMAN AFB   CLEAR     68  68 100 S5        30.02S

$$
MOZ051-052-059>065-271200-
...EAST CENTRAL MISSOURI...

CITY           SKY/WX    TMP DP  RH WIND       PRES   REMARKS
ST LOUIS INTL  MOCLDY    76  69  79 SW5       30.06R

$$
MOZ072>076-082>087-097>100-106>115-271200-
...SOUTH CENTRAL AND SOUTHEAST MISSOURI...

CITY           SKY/WX    TMP DP  RH WIND       PRES   REMARKS
CAPE GIRARDEAU PTCLDY    69  68  96 CALM      30.04R
POPLAR BLUFF   PTCLDY    70  69  97 CALM      30.05R
WEST PLAINS    CLOUDY    69  67  93 CALM      30.09S FOG

$$



USA.gov is the U.S. government's official web portal to all federal, state and local government web resources and services.